Temperature
-0 -0 -0 -0 -0 -0 -1 -1 -1 -1 -1 -0 -0 -0 -0 -0 -0 -0 -0 -0 -0 -0 -0 -0 -0 -0 -0 -0 -1 -1 -1 -1 -1 -1 -0 -0 -0 -0 -0 -0 0 0 1
-1 -1 -1 -1 -1 -1 -1 -1 -1 -1 -1 -1 -1 -1 -1 -1 -1 -1 -1 -1 -1 -1 -1 -1 -1 -1 -1 -1 -1 -1 -1 -1 -2 -2 -1 -1 -1 -1 -1 -1 -1 -0 -0
-2 -2 -2 -2 -2 -2 -2 -2 -2 -2 -2 -2 -2 -2 -2 -2 -2 -2 -2 -2 -2 -2 -1 -1 -1 -2 -2 -2 -2 -2 -2 -2 -2 -2 -2 -2 -2 -2 -2 -1 -1 -1 -1
-2 -2 -2 -2 -2 -2 -2 -2 -3 -3 -3 -2 -2 -2 -2 -3 -2 -2 -2 -2 -2 -2 -2 -2 -2 -2 -2 -2 -2 -2 -3 -3 -3 -3 -3 -3 -3 -3 -3 -2 -2 -2 -2
-3 -3 -3 -3 -3 -3 -3 -3 -3 -3 -3 -3 -3 -3 -3 -3 -3 -3 -3 -3 -3 -3 -3 -3 -3 -3 -3 -3 -3 -3 -3 -3 -4 -4 -4 -4 -3 -3 -3 -3 -3 -3 -3
-3 -3 -3 -4 -4 -4 -4 -4 -4 -4 -4 -4 -4 -4 -4 -4 -4 -4 -4 -4 -4 -4 -4 -3 -3 -4 -3 -3 -4 -4 -4 -4 -4 -4 -4 -4 -4 -4 -4 -4 -4 -4 -4
-4 -4 -4 -4 -4 -5 -5 -5 -5 -5 -5 -5 -5 -5 -5 -5 -5 -5 -5 -5 -5 -4 -4 -4 -4 -4 -4 -4 -4 -4 -4 -5 -4 -4 -4 -4 -4 -4 -4 -5 -5 -4 -4
-5 -5 -5 -5 -5 -5 -5 -5 -5 -5 -6 -6 -6 -6 -5 -5 -6 -6 -6 -6 -5 -5 -5 -5 -5 -5 -5 -5 -5 -5 -5 -5 -5 -5 -5 -5 -5 -5 -5 -5 -5 -5 -5
-6 -6 -6 -6 -6 -6 -6 -6 -6 -6 -6 -6 -6 -6 -6 -6 -6 -7 -6 -7 -7 -6 -6 -6 -6 -6 -6 -6 -6 -6 -6 -6 -6 -6 -6 -6 -6 -6 -6 -6 -6 -6 -6
-7 -7 -6 -7 -7 -7 -7 -7 -7 -7 -7 -7 -7 -7 -7 -7 -7 -7 -7 -7 -7 -7 -7 -7 -7 -7 -7 -7 -7 -7 -7 -7 -7 -7 -7 -7 -7 -6 -6 -7 -6 -6 -6
-7 -7 -7 -7 -7 -7 -8 -8 -8 -8 -8 -8 -8 -8 -8 -8 -8 -8 -8 -8 -8 -8 -8 -8 -8 -8 -8 -8 -8 -8 -8 -8 -8 -8 -8 -8 -8 -7 -7 -7 -7 -7 -7
-8 -8 -8 -8 -8 -8 -8 -9 -9 -9 -9 -9 -9 -9 -9 -9 -9 -9 -9 -9 -9 -9 -9 -9 -9 -9 -9 -9 -9 -9 -9 -9 -9 -9 -9 -9 -8 -8 -8 -8 -8 -8 -8
-9 -9 -9 -9 -9 -9 -9 -9 -10 -10 -10 -10 -10 -10 -10 -10 -10 -10 -10 -9 -9 -10 -10 -9 -9 -9 -10 -9 -9 -9 -9 -9 -9 -9 -9 -9 -9 -8 -9 -9 -8 -8 -8
-9 -9 -9 -10 -10 -10 -10 -10 -11 -11 -11 -11 -11 -11 -11 -11 -11 -10 -10 -10 -10 -10 -10 -10 -10 -10 -10 -10 -10 -10 -10 -10 -10 -10 -10 -9 -9 -9 -9 -9 -9 -9 -9
-10 -10 -10 -10 -11 -11 -11 -11 -11 -11 -11 -11 -12 -12 -12 -11 -11 -11 -11 -11 -11 -11 -11 -10 -10 -10 -10 -10 -10 -11 -10 -10 -10 -10 -10 -10 -10 -10 -10 -10 -10 -10 -9
-11 -11 -11 -11 -11 -12 -12 -12 -12 -12 -12 -12 -12 -12 -12 -12 -12 -12 -12 -11 -11 -11 -11 -11 -11 -11 -11 -11 -11 -11 -11 -11 -11 -11 -11 -11 -11 -10 -10 -10 -10 -10 -10
-12 -12 -12 -12 -12 -12 -13 -13 -12 -12 -12 -13 -13 -13 -13 -12 -12 -12 -12 -12 -12 -12 -12 -12 -12 -12 -12 -12 -12 -12 -12 -11 -11 -11 -11 -11 -11 -11 -11 -11 -11 -11 -10
-13 -13 -13 -13 -13 -13 -13 -13 -13 -13 -13 -13 -13 -13 -13 -13 -13 -13 -13 -13 -13 -12 -13 -13 -13 -13 -13 -12 -12 -12 -12 -12 -12 -12 -12 -12 -12 -12 -12 -12 -12 -11 -11
-14 -14 -14 -14 -14 -14 -14 -14 -14 -14 -14 -14 -13 -13 -13 -13 -13 -13 -13 -13 -13 -13 -13 -13 -13 -13 -13 -13 -13 -13 -13 -13 -13 -13 -13 -13 -13 -13 -12 -12 -12 -12 -12
-14 -14 -14 -14 -14 -15 -15 -15 -15 -15 -15 -15 -14 -14 -14 -14 -14 -14 -14 -14 -14 -14 -14 -14 -14 -14 -14 -14 -14 -14 -13 -13 -13 -13 -13 -13 -13 -13 -13 -13 -13 -12 -12
-15 -15 -15 -15 -15 -15 -15 -15 -15 -15 -15 -15 -15 -15 -15 -15 -15 -15 -15 -15 -15 -15 -15 -15 -15 -14 -14 -14 -14 -14 -14 -14 -14 -14 -14 -14 -14 -14 -13 -13 -13 -13 -13
-15 -15 -15 -16 -16 -16 -16 -16 -16 -16 -16 -16 -15 -15 -15 -15 -15 -15 -15 -15 -15 -15 -15 -15 -15 -15 -15 -15 -15 -15 -14 -14 -14 -14 -14 -14 -14 -14 -14 -14 -14 -14 -13
-16 -16 -16 -16 -16 -16 -16 -16 -16 -16 -16 -16 -16 -16 -16 -16 -16 -16 -16 -16 -16 -16 -16 -16 -16 -15 -15 -15 -15 -15 -15 -15 -15 -15 -15 -15 -15 -14 -14 -14 -14 -14 -14
-16 -17 -17 -17 -17 -17 -17 -17 -17 -17 -17 -17 -17 -16 -16 -16 -16 -16 -16 -16 -16 -16 -16 -16 -16 -16 -16 -16 -16 -15 -15 -15 -15 -15 -15 -15 -15 -15 -15 -15 -15 -15 -14
-17 -17 -17 -17 -17 -17 -17 -17 -17 -17 -17 -17 -17 -17 -17 -17 -17 -17 -17 -17 -17 -17 -16 -16 -16 -16 -16 -16 -16 -16 -16 -16 -16 -16 -16 -16 -15 -15 -15 -15 -15 -15 -15
-18 -18 -18 -18 -18 -18 -18 -18 -18 -18 -18 -18 -18 -18 -18 -17 -17 -17 -17 -17 -17 -17 -17 -17 -17 -17 -17 -16 -16 -16 -16 -16 -16 -16 -16 -16 -16 -16 -16 -16 -15 -15 -15
Wind_Speed
2 2 3 3 3 3 3 3 3 3 3 3 3 3 4 4 4 4 4 4 5 5 5 5 6 4 4 4 4 4 3 3 5 4 4 3 4 4 6 6 7 7 8
2 2 2 2 2 3 3 3 3 3 3 3 3 3 4 4 4 5 6 5 6 6 6 6 7 5 5 5 5 5 5 4 5 6 4 4 5 5 5 5 6 7 7
2 2 2 2 2 3 3 3 3 3 3 3 3 4 4 4 5 6 6 6 6 7 6 7 7 7 7 6 6 6 5 5 4 5 5 4 4 4 4 5 5 5 7
2 2 2 3 3 3 2 2 3 3 3 3 3 4 4 4 5 6 6 6 6 6 6 6 7 8 8 8 7 7 6 5 5 5 5 4 4 4 4 4 5 4 5
2 3 3 3 3 2 2 2 2 2 3 3 3 3 3 4 5 6 6 6 6 6 5 6 7 8 9 8 7 7 6 6 5 5 5 5 5 4 5 4 5 4 5
3 3 3 2 2 2 2 2 2 2 3 2 3 4 4 4 7 8 6 5 5 5 5 5 6 7 9 10 11 10 9 8 8 7 6 7 7 6 5 5 5 4 5
3 3 2 2 2 3 3 2 3 3 3 3 4 4 4 6 8 8 7 4 4 5 5 5 5 6 7 6 9 11 10 12 12 8 8 8 7 7 6 7 7 6 7
2 3 3 2 3 2 2 3 3 3 3 4 4 4 4 6 8 8 7 4 4 5 6 6 6 5 6 6 6 6 7 8 10 8 7 8 7 7 7 8 7 5 5
3 3 3 3 2 2 2 3 3 3 3 4 4 4 4 6 8 8 6 3 4 5 5 5 6 6 9 9 6 6 7 7 9 10 11 11 12 12 10 5 4 4 6
3 3 3 2 2 3 3 3 2 3 3 4 4 4 4 5 7 7 6 3 4 4 4 5 7 8 9 9 6 6 7 7 5 6 7 8 8 9 11 8 6 6 6
2 2 2 2 2 3 3 2 2 3 3 3 4 4 4 5 7 7 7 3 3 4 4 4 5 9 10 10 8 6 8 7 5 5 5 5 4 5 6 7 7 6 7
1 2 2 2 2 2 2 2 2 3 3 3 3 3 3 4 6 7 8 7 5 4 4 4 5 9 9 9 7 8 9 7 4 4 5 5 5 5 5 6 8 9 9
1 2 2 2 2 2 2 2 2 2 2 3 3 3 3 3 4 7 8 8 8 5 4 7 7 8 7 6 7 8 6 4 4 5 5 6 5 5 4 4 5 6 7
2 2 2 1 2 2 2 2 2 3 3 3 3 3 4 3 3 4 4 5 6 5 4 5 6 6 6 5 5 4 4 4 4 5 5 4 4 4 4 4 4 4 4
2 2 2 2 2 2 2 2 3 4 5 4 4 4 4 4 6 7 5 4 3 4 3 2 2 2 2 3 3 3 3 3 4 4 4 3 4 4 4 3 4 4 5
2 2 2 1 2 2 2 3 5 5 7 7 7 7 6 7 9 9 9 8 6 5 2 2 2 3 3 3 3 3 3 3 3 3 3 3 4 4 4 4 4 4 5
2 2 2 2 2 2 2 2 3 4 6 6 6 7 7 7 8 8 8 6 5 4 2 2 3 3 3 3 3 3 3 3 3 3 3 3 4 4 4 4 4 4 5
2 3 3 2 2 2 2 2 3 3 4 4 5 7 7 7 7 7 6 4 2 2 2 2 3 3 3 3 3 3 3 3 3 3 3 3 4 4 4 4 5 5 5
2 2 2 2 2 2 2 2 2 3 3 4 3 5 6 7 6 6 5 2 2 2 2 3 3 3 3 3 3 4 3 3 3 3 3 3 3 3 4 4 4 7 6
2 4 3 2 2 2 2 2 2 2 3 3 3 4 4 4 3 3 3 2 2 3 3 3 3 3 3 3 3 3 3 3 3 3 3 3 3 3 4 5 4 5 5
2 3 4 3 2 2 2 2 2 2 3 3 3 5 6 3 3 3 3 3 3 3 3 3 3 3 3 3 3 4 4 4 4 4 4 3 3 3 4 4 4 4 4
2 2 2 2 2 2 2 2 2 2 3 4 4 5 7 4 2 3 3 4 3 3 3 3 3 3 3 3 3 4 4 4 4 4 4 4 4 4 4 4 4 4 4
2 2 2 2 2 4 4 2 2 3 3 4 4 4 4 3 3 3 4 4 4 4 4 4 4 4 4 4 4 4 5 5 5 4 4 4 4 4 4 4 5 5 5
1 2 2 3 3 2 3 3 3 3 3 4 4 4 4 4 4 4 4 4 4 5 5 4 5 5 6 6 5 6 6 7 7 6 6 6 5 5 5 5 5 6 5
2 2 2 3 3 3 3 3 3 3 4 4 4 4 4 4 4 4 4 4 5 5 5 6 5 6 7 8 8 8 10 11 10 8 7 6 6 6 5 5 5 5 5
2 2 3 3 3 3 3 4 4 4 4 4 4 4 4 4 5 5 5 4 5 5 5 6 7 8 9 9 10 11 12 12 12 11 8 6 6 6 6 5 6 5 5
Wind_Direction
216 224 224 226 223 210 208 215 216 223 221 213 218 228 239 231 225 216 217 215 223 225 219 220 227 219 214 211 211 215 221 221 246 263 259 249 243 251 257 261 260 256 261
229 219 221 224 219 215 219 223 218 213 218 222 221 228 245 240 231 222 221 220 220 226 226 223 229 223 218 217 218 225 226 226 233 253 261 249 250 241 246 249 260 256 254
228 221 223 222 226 230 232 232 229 222 219 222 218 227 241 246 239 231 223 225 225 227 227 225 228 222 223 224 223 227 229 235 235 240 251 255 259 247 256 263 259 257 255
228 227 233 235 228 235 237 228 231 229 222 220 225 233 243 252 247 236 226 226 227 231 233 231 231 228 227 224 226 225 225 225 229 234 246 250 251 248 240 250 264 261 259
226 234 242 247 239 235 238 236 229 231 238 234 231 243 251 254 251 236 228 226 228 231 233 234 240 244 242 236 233 223 219 223 225 233 241 247 246 237 236 240 252 271 269
230 242 252 251 248 244 242 241 243 244 247 245 240 241 247 255 268 257 243 230 232 234 242 245 251 254 252 253 253 245 235 226 226 230 240 240 243 239 241 244 243 260 270
235 249 252 248 251 251 247 241 243 244 243 243 244 245 250 261 271 270 260 243 227 235 243 246 254 258 259 256 255 253 251 250 246 240 239 241 240 234 231 240 239 245 259
240 248 253 249 251 251 241 242 245 247 245 246 248 247 252 265 277 278 273 259 234 236 239 238 244 249 253 251 250 252 252 253 254 248 239 242 243 236 234 240 244 258 273
246 250 253 252 254 251 249 250 250 243 250 250 248 242 246 264 276 279 275 258 251 243 245 247 250 248 257 257 250 249 259 264 263 260 258 254 254 252 244 241 235 244 265
250 254 257 251 247 249 250 258 263 252 254 256 262 255 251 258 271 278 276 258 260 253 250 253 259 262 260 258 242 236 249 258 261 267 266 265 259 252 250 237 233 239 258
263 265 267 256 249 246 244 254 256 261 262 257 263 266 262 265 272 277 277 268 259 260 261 258 259 267 264 259 254 243 251 260 256 253 258 262 257 249 242 235 229 235 246
272 269 264 260 257 260 241 251 253 252 253 258 262 269 264 267 275 277 279 282 277 253 261 264 261 266 266 266 263 259 262 263 253 249 254 255 256 256 254 243 241 241 243
283 275 271 273 267 265 246 250 248 242 243 254 254 266 275 275 275 283 284 289 287 273 263 270 271 270 268 266 270 271 268 259 248 247 250 254 256 258 257 253 253 250 251
280 284 281 272 275 272 269 253 249 246 242 248 254 260 270 274 274 272 266 280 283 284 276 271 271 270 270 267 268 274 269 257 252 252 253 260 260 256 256 256 259 259 268
289 287 294 293 284 278 281 267 262 248 243 244 239 243 252 262 270 282 282 271 266 267 278 282 288 284 284 278 274 268 267 267 261 258 258 259 265 261 259 255 257 262 261
296 300 295 291 290 287 290 305 304 296 288 274 268 266 264 272 281 285 290 289 287 280 268 263 273 273 272 273 272 275 269 266 266 266 261 255 259 260 262 263 260 257 256
280 288 285 284 282 284 287 293 307 317 312 302 297 294 288 284 287 290 293 293 296 290 263 257 262 266 269 271 271 271 271 275 274 264 263 261 261 261 262 263 261 262 261
285 284 290 285 285 287 287 286 287 296 308 309 314 313 310 306 304 305 308 315 317 326 284 270 264 265 268 272 273 275 278 281 275 269 267 266 264 264 264 263 262 260 264
293 287 286 284 283 283 285 286 285 286 291 301 311 315 317 316 320 322 329 327 298 293 291 280 272 267 266 267 268 269 268 268 269 270 268 267 265 264 266 269 268 268 268
297 296 301 296 293 292 292 290 292 294 298 302 303 305 312 317 318 320 325 311 294 288 286 281 278 272 266 262 261 260 261 264 265 266 267 266 265 262 262 266 266 265 263
301 302 309 312 306 298 297 292 292 293 294 298 299 299 303 305 301 299 298 295 285 281 282 284 281 274 268 263 260 258 258 261 260 259 260 262 262 265 265 264 267 268 267
290 297 300 294 295 292 293 290 288 290 296 300 305 311 314 322 311 302 298 296 291 280 272 271 275 272 264 260 257 255 255 258 258 256 255 255 256 257 259 260 263 268 265
280 288 294 295 295 299 309 311 302 297 297 299 303 306 310 307 297 293 294 296 293 288 283 272 266 271 271 267 258 250 253 255 252 246 247 251 251 250 250 253 256 260 260
272 280 287 293 295 292 294 297 296 295 295 295 297 299 299 298 295 292 292 293 293 291 288 279 268 265 269 275 273 263 258 260 257 246 237 239 246 250 246 248 251 253 255
266 271 276 280 284 287 290 293 294 295 296 296 295 296 298 298 297 296 292 289 288 287 286 283 276 271 270 272 273 272 273 274 270 255 236 232 239 240 242 244 246 251 249
271 269 271 275 277 279 281 285 289 291 292 293 293 292 292 292 291 291 291 291 290 286 284 283 277 275 275 276 276 277 279 279 278 271 250 234 234 238 237 240 243 242 243
Height
1471 1471 1471 1472 1473 1473 1473 1474 1474 1475 1476 1476 1477 1478 1479 1480 1480 1481 1482 1483 1485 1486 1487 1488 1489 1490 1490 1491 1492 1493 1494 1495 1493 1493 1495 1496 1496 1497 1498 1498 1499 1499 1498
1466 1467 1467 1468 1468 1468 1469 1469 1470 1471 1471 1472 1472 1473 1474 1474 1475 1476 1476 1477 1479 1480 1481 1482 1483 1484 1485 1486 1487 1487 1488 1489 1488 1487 1488 1489 1490 1491 1492 1492 1492 1493 1492
1462 1462 1462 1463 1463 1464 1464 1465 1465 1466 1466 1467 1467 1468 1468 1469 1469 1470 1471 1472 1473 1474 1475 1476 1477 1478 1479 1480 1480 1481 1482 1482 1483 1482 1482 1483 1484 1485 1485 1485 1486 1486 1486
1458 1458 1458 1458 1459 1459 1460 1460 1460 1460 1461 1461 1462 1463 1463 1464 1464 1465 1465 1466 1467 1468 1469 1470 1471 1472 1472 1473 1474 1475 1475 1476 1477 1477 1477 1477 1478 1478 1479 1479 1479 1479 1479
1454 1454 1454 1454 1454 1455 1455 1455 1455 1456 1456 1456 1456 1457 1458 1459 1459 1459 1460 1461 1461 1462 1463 1464 1465 1465 1466 1467 1468 1468 1469 1469 1470 1470 1470 1470 1471 1472 1473 1473 1472 1472 1472
1449 1449 1450 1450 1450 1450 1450 1450 1451 1451 1451 1451 1451 1452 1452 1453 1454 1454 1455 1455 1455 1456 1456 1457 1458 1459 1459 1460 1461 1462 1463 1463 1463 1463 1463 1463 1463 1465 1466 1466 1466 1466 1465
1445 1445 1445 1445 1445 1445 1445 1445 1446 1446 1446 1446 1446 1447 1447 1448 1449 1449 1449 1450 1450 1450 1450 1451 1452 1452 1453 1453 1454 1455 1456 1457 1458 1458 1457 1456 1457 1458 1459 1460 1460 1460 1459
1440 1440 1440 1440 1440 1440 1440 1440 1441 1441 1441 1441 1441 1441 1442 1442 1443 1444 1444 1444 1444 1444 1445 1445 1445 1446 1446 1447 1447 1447 1448 1449 1450 1450 1451 1451 1452 1453 1453 1454 1453 1453 1453
1436 1436 1436 1436 1436 1436 1436 1436 1436 1436 1436 1436 1436 1436 1436 1437 1438 1438 1439 1438 1438 1438 1439 1439 1440 1439 1440 1441 1441 1441 1441 1441 1443 1443 1444 1445 1445 1446 1447 1447 1447 1447 1446
1432 1432 1432 1431 1431 1431 1431 1431 1431 1431 1431 1431 1431 1431 1432 1432 1433 1433 1433 1433 1432 1432 1433 1433 1434 1434 1434 1434 1435 1434 1434 1434 1435 1435 1436 1437 1438 1438 1439 1440 1440 1441 1440
1428 1428 1428 1428 1427 1427 1427 1427 1427 1427 1426 1426 1426 1426 1426 1427 1427 1427 1428 1428 1427 1427 1427 1427 1427 1428 1428 1429 1429 1429 1429 1430 1429 1429 1429 1429 1430 1431 1431 1432 1433 1434 1433
1425 1424 1424 1424 1423 1423 1422 1422 1422 1422 1422 1421 1421 1421 1421 1422 1422 1422 1422 1423 1423 1422 1421 1422 1422 1423 1423 1423 1423 1423 1424 1424 1424 1423 1423 1423 1423 1423 1424 1425 1426 1427 1427
1421 1421 1420 1420 1419 1419 1418 1418 1418 1417 1417 1416 1416 1416 1416 1417 1417 1417 1417 1417 1417 1417 1417 1417 1417 1417 1418 1418 1418 1418 1418 1418 1417 1417 1416 1417 1417 1418 1418 1418 1419 1419 1419
1417 1417 1416 1416 1415 1415 1415 1414 1414 1413 1413 1412 1412 1412 1412 1412 1412 1412 1412 1412 1412 1412 1412 1413 1412 1412 1412 1412 1412 1412 1412 1412 1412 1412 1411 1411 1412 1412 1412 1412 1413 1412 1412
1414 1413 1413 1412 1412 1411 1411 1410 1410 1409 1409 1408 1408 1408 1408 1407 1408 1409 1408 1408 1408 1408 1408 1407 1407 1407 1406 1406 1406 1406 1407 1407 1407 1406 1406 1406 1406 1406 1406 1407 1407 1406 1406
1410 1410 1409 1408 1408 1407 1406 1406 1405 1406 1405 1404 1405 1405 1404 1404 1404 1404 1404 1404 1403 1404 1403 1402 1402 1402 1401 1401 1401 1401 1401 1401 1401 1401 1401 1401 1400 1400 1400 1400 1401 1401 1400
1407 1407 1406 1405 1405 1404 1403 1402 1402 1402 1402 1401 1401 1400 1400 1400 1400 1400 1399 1399 1399 1399 1398 1397 1397 1397 1397 1397 1396 1396 1396 1396 1396 1396 1396 1396 1395 1395 1395 1394 1394 1395 1394
1405 1404 1403 1402 1402 1401 1400 1399 1399 1398 1397 1397 1397 1397 1396 1396 1395 1395 1395 1395 1393 1393 1393 1393 1392 1392 1392 1392 1392 1391 1391 1391 1391 1391 1390 1390 1390 1390 1389 1389 1389 1389 1388
1402 1401 1400 1400 1399 1398 1397 1396 1396 1395 1394 1394 1393 1393 1393 1392 1392 1392 1391 1390 1389 1389 1389 1389 1388 1388 1388 1387 1387 1387 1386 1386 1386 1385 1385 1385 1385 1384 1384 1384 1383 1383 1383
1399 1399 1398 1397 1396 1395 1395 1394 1393 1392 1391 1390 1390 1389 1389 1388 1387 1387 1387 1386 1385 1385 1385 1384 1384 1383 1383 1383 1382 1382 1381 1381 1380 1380 1380 1380 1379 1379 1378 1378 1378 1378 1377
1397 1396 1396 1395 1394 1393 1392 1391 1390 1389 1389 1388 1387 1387 1386 1386 1384 1384 1384 1383 1382 1381 1381 1380 1379 1379 1379 1378 1378 1377 1376 1376 1376 1375 1375 1375 1374 1374 1373 1373 1373 1373 1372
1395 1394 1393 1392 1392 1391 1390 1389 1388 1387 1386 1385 1384 1384 1384 1383 1382 1381 1380 1379 1378 1377 1377 1376 1375 1375 1374 1374 1373 1373 1372 1371 1371 1371 1370 1370 1369 1369 1368 1368 1368 1367 1367
1392 1392 1391 1390 1389 1389 1388 1387 1386 1385 1383 1382 1381 1380 1380 1379 1378 1377 1376 1375 1374 1373 1372 1372 1371 1370 1370 1369 1369 1368 1367 1367 1366 1366 1365 1365 1364 1364 1363 1363 1363 1362 1362
1390 1390 1389 1388 1387 1386 1385 1384 1383 1382 1381 1379 1378 1377 1376 1375 1374 1373 1372 1371 1370 1369 1368 1367 1366 1365 1365 1364 1364 1363 1363 1362 1362 1361 1360 1360 1359 1359 1358 1358 1358 1358 1357
1388 1387 1386 1385 1384 1383 1382 1381 1380 1379 1378 1376 1375 1374 1373 1372 1370 1369 1368 1367 1366 1364 1363 1363 1362 1361 1360 1359 1359 1358 1358 1357 1357 1356 1356 1355 1355 1354 1354 1353 1353 1353 1353
1385 1384 1383 1382 1381 1380 1379 1378 1376 1375 1374 1373 1371 1370 1369 1367 1366 1365 1364 1362 1361 1360 1359 1358 1357 1356 1355 1354 1354 1353 1352 1352 1352 1351 1351 1350 1350 1349 1349 1348 1348 1348 1348